�������l�o���
Date,Time,MP-1(��Sv/h),MP-2(��Sv/h),MP-3(��Sv/h),MP-4(��Sv/h),MP-5(��Sv/h),MP-6(��Sv/h),MP-7(��Sv/h),MP-8(��Sv/h),����,����(m/s),���J
2022/11/15,00:00,0.594,0.858,0.537,1.084,0.760,0.340,0.602,0.566,�k��,7.1,��
2022/11/15,00:10,0.593,0.861,0.535,1.082,0.760,0.341,0.603,0.566,�k�k��,5.9,��
2022/11/15,00:20,0.592,0.862,0.537,1.083,0.761,0.339,0.602,0.566,�k�k��,5.6,��
2022/11/15,00:30,0.592,0.861,0.537,1.083,0.759,0.341,0.603,0.566,�k�k��,6.4,��
2022/11/15,00:40,0.593,0.858,0.537,1.084,0.759,0.340,0.601,0.566,�k��,5.9,��
2022/11/15,00:50,0.592,0.859,0.538,1.083,0.758,0.340,0.604,0.567,�k��,6.3,��
2022/11/15,01:00,0.593,0.862,0.538,1.083,0.759,0.341,0.602,0.568,�k��,6.4,��
2022/11/15,01:10,0.594,0.861,0.536,1.086,0.759,0.341,0.602,0.566,�k��,5.2,��
2022/11/15,01:20,0.595,0.861,0.536,1.081,0.760,0.340,0.601,0.566,�k��,5.3,��
2022/11/15,01:30,0.592,0.861,0.535,1.082,0.759,0.343,0.603,0.565,�k��,6.0,��
2022/11/15,01:40,0.593,0.856,0.538,1.083,0.759,0.341,0.602,0.565,�k�k��,6.5,��
2022/11/15,01:50,0.593,0.860,0.537,1.082,0.759,0.340,0.603,0.567,�k�k��,5.6,��
2022/11/15,02:00,0.594,0.858,0.538,1.084,0.761,0.340,0.602,0.567,�k��,5.6,��
2022/11/15,02:10,0.593,0.862,0.536,1.081,0.759,0.341,0.603,0.567,�k��,6.1,��
2022/11/15,02:20,0.593,0.859,0.538,1.085,0.759,0.341,0.601,0.567,�k��,5.6,��
2022/11/15,02:30,0.593,0.859,0.537,1.084,0.761,0.340,0.602,0.565,�k��,5.0,��
2022/11/15,02:40,0.593,0.859,0.538,1.081,0.760,0.341,0.602,0.566,�k��,5.4,��
2022/11/15,02:50,0.593,0.860,0.537,1.083,0.759,0.340,0.601,0.565,�k��,5.3,��
2022/11/15,03:00,0.591,0.860,0.538,1.082,0.760,0.340,0.600,0.566,�k��,5.3,��
2022/11/15,03:10,0.593,0.860,0.537,1.084,0.758,0.342,0.601,0.566,�k�k��,6.0,��
2022/11/15,03:20,0.594,0.862,0.537,1.082,0.760,0.340,0.603,0.567,�k�k��,6.1,��
2022/11/15,03:30,0.593,0.862,0.537,1.083,0.759,0.341,0.601,0.567,�k�k��,5.5,��
2022/11/15,03:40,0.594,0.860,0.538,1.080,0.760,0.340,0.602,0.565,�k��,5.3,��
2022/11/15,03:50,0.593,0.861,0.536,1.081,0.759,0.340,0.602,0.566,�k�k��,5.5,��
2022/11/15,04:00,0.592,0.863,0.537,1.084,0.759,0.340,0.600,0.566,�k�k��,6.0,��
2022/11/15,04:10,0.591,0.861,0.536,1.080,0.760,0.341,0.603,0.567,�k�k��,6.3,��
2022/11/15,04:20,0.594,0.860,0.537,1.082,0.760,0.340,0.602,0.567,�k�k��,6.7,��
2022/11/15,04:30,0.592,0.861,0.535,1.083,0.759,0.341,0.600,0.567,�k�k��,6.3,��
2022/11/15,04:40,0.592,0.860,0.537,1.084,0.760,0.342,0.601,0.567,�k�k��,5.6,��
2022/11/15,04:50,0.592,0.860,0.536,1.083,0.760,0.340,0.601,0.567,�k�k��,5.3,��
2022/11/15,05:00,0.593,0.862,0.537,1.083,0.758,0.339,0.601,0.564,�k�k��,4.6,��
2022/11/15,05:10,0.593,0.860,0.536,1.083,0.760,0.341,0.602,0.567,�k��,6.0,��
2022/11/15,05:20,0.593,0.861,0.539,1.082,0.760,0.341,0.601,0.568,�k�k��,6.4,��
2022/11/15,05:30,0.592,0.860,0.537,1.081,0.761,0.340,0.602,0.566,�k�k��,6.2,��
2022/11/15,05:40,0.593,0.859,0.536,1.080,0.762,0.340,0.601,0.566,�k�k��,6.6,��
2022/11/15,05:50,0.593,0.863,0.536,1.083,0.760,0.340,0.600,0.566,�k�k��,7.8,��
2022/11/15,06:00,0.592,0.859,0.538,1.081,0.761,0.339,0.601,0.566,�k�k��,7.0,��
2022/11/15,06:10,0.593,0.863,0.536,1.082,0.759,0.340,0.602,0.567,�k��,6.7,��
2022/11/15,06:20,0.594,0.862,0.536,1.084,0.761,0.338,0.600,0.566,�k��,5.5,��
2022/11/15,06:30,0.592,0.861,0.536,1.084,0.761,0.341,0.599,0.567,�k��,5.1,��
2022/11/15,06:40,0.594,0.862,0.537,1.082,0.762,0.340,0.602,0.567,�k�k��,5.2,��
2022/11/15,06:50,0.592,0.860,0.537,1.079,0.760,0.340,0.601,0.567,�k�k��,6.2,�L
2022/11/15,07:00,0.593,0.859,0.537,1.084,0.761,0.340,0.601,0.567,�k�k��,6.2,��
2022/11/15,07:10,0.594,0.860,0.537,1.082,0.761,0.341,0.600,0.568,�k�k��,5.9,��
2022/11/15,07:20,0.594,0.860,0.538,1.087,0.761,0.340,0.602,0.566,�k�k��,6.5,��
2022/11/15,07:30,0.592,0.861,0.537,1.084,0.760,0.341,0.601,0.567,�k�k��,5.7,��
2022/11/15,07:40,0.593,0.859,0.537,1.083,0.761,0.342,0.601,0.567,�k�k��,5.3,�L
2022/11/15,07:50,0.593,0.860,0.536,1.082,0.760,0.340,0.600,0.566,�k��,4.4,�L
2022/11/15,08:00,0.593,0.858,0.538,1.085,0.760,0.340,0.600,0.566,�k��,3.9,�L
2022/11/15,08:10,0.595,0.860,0.537,1.084,0.759,0.342,0.603,0.567,�k��,5.8,�L
2022/11/15,08:20,0.595,0.858,0.537,1.084,0.760,0.344,0.600,0.569,�k�k��,5.1,�L
2022/11/15,08:30,0.594,0.857,0.538,1.085,0.759,0.344,0.601,0.567,�k��,5.2,�L
2022/11/15,08:40,0.595,0.858,0.539,1.083,0.758,0.345,0.599,0.568,�k�k��,5.5,�L
2022/11/15,08:50,0.593,0.854,0.539,1.085,0.758,0.343,0.598,0.565,�k��,5.2,�L
2022/11/15,09:00,0.594,0.855,0.537,1.083,0.755,0.343,0.600,0.566,�k��,5.1,�L
2022/11/15,09:10,0.591,0.851,0.535,1.080,0.755,0.344,0.598,0.566,�k��,4.6,�L
2022/11/15,09:20,0.592,0.852,0.536,1.084,0.752,0.343,0.599,0.564,�k��,3.5,�L
2022/11/15,09:30,0.594,0.853,0.535,1.081,0.752,0.344,0.601,0.564,�k��,4.6,�L
2022/11/15,09:40,0.593,0.849,0.536,1.080,0.753,0.343,0.601,0.563,�k�k��,3.9,�L
2022/11/15,09:50,0.591,0.851,0.535,1.083,0.752,0.343,0.598,0.565,�k��,4.7,�L
2022/11/15,10:00,0.588,0.851,0.538,1.079,0.751,0.342,0.599,0.562,�k�k��,3.5,�L
2022/11/15,10:10,0.590,0.849,0.535,1.078,0.752,0.342,0.599,0.564,�k��,4.0,��
2022/11/15,10:20,0.589,0.849,0.533,1.080,0.748,0.340,0.599,0.564,�k��,3.6,��
2022/11/15,10:30,0.592,0.849,0.534,1.078,0.748,0.340,0.599,0.564,�k�k��,4.4,��
2022/11/15,10:40,0.589,0.846,0.533,1.081,0.748,0.340,0.601,0.564,�k�k��,4.4,�L
2022/11/15,10:50,0.588,0.847,0.533,1.080,0.751,0.340,0.600,0.565,�k��,3.4,�L
2022/11/15,11:00,0.589,0.846,0.533,1.079,0.748,0.342,0.598,0.564,�k��,2.9,�L
2022/11/15,11:10,0.588,0.848,0.532,1.078,0.749,0.340,0.599,0.563,�k��,2.8,�L
2022/11/15,11:20,0.587,0.845,0.533,1.081,0.750,0.340,0.600,0.564,�k��,3.1,�L
2022/11/15,11:30,0.588,0.846,0.534,1.076,0.748,0.340,0.599,0.564,�k��,3.1,�L
2022/11/15,11:40,0.587,0.848,0.532,1.076,0.747,0.339,0.599,0.564,�k��,3.4,�L
2022/11/15,11:50,0.588,0.846,0.532,1.077,0.748,0.340,0.598,0.563,�k��,3.6,�L
2022/11/15,12:00,0.588,0.848,0.532,1.076,0.748,0.339,0.599,0.565,�k��,3.5,�L
2022/11/15,12:10,0.588,0.847,0.532,1.078,0.746,0.340,0.597,0.564,�k�k��,4.1,�L
2022/11/15,12:20,0.588,0.847,0.532,1.077,0.746,0.340,0.597,0.563,�k��,3.8,�L
2022/11/15,12:30,0.588,0.845,0.533,1.079,0.746,0.342,0.600,0.562,�k�k��,4.7,�L
2022/11/15,12:40,0.586,0.846,0.536,1.077,0.745,0.340,0.597,0.564,�k�k��,4.3,�L
2022/11/15,12:50,0.587,0.845,0.531,1.074,0.745,0.340,0.596,0.562,�k�k��,4.7,�L
2022/11/15,13:00,0.586,0.844,0.532,1.074,0.743,0.340,0.597,0.564,�k�k��,4.4,�L
2022/11/15,13:10,0.586,0.841,0.530,1.074,0.746,0.340,0.597,0.563,�k��,3.6,�L
2022/11/15,13:20,0.586,0.839,0.530,1.074,0.743,0.339,0.598,0.563,�k��,3.5,�L
2022/11/15,13:30,0.585,0.842,0.531,1.073,0.743,0.341,0.597,0.564,�k��,3.4,�L
2022/11/15,13:40,0.585,0.840,0.530,1.075,0.742,0.340,0.597,0.564,�k��,3.6,�L
2022/11/15,13:50,0.587,0.841,0.531,1.074,0.742,0.341,0.597,0.564,�k��,3.9,�L
2022/11/15,14:00,0.585,0.840,0.530,1.073,0.743,0.340,0.598,0.563,�k��,2.9,�L
2022/11/15,14:10,0.584,0.837,0.529,1.072,0.742,0.340,0.596,0.563,�k��,2.3,�L
2022/11/15,14:20,0.584,0.837,0.529,1.074,0.743,0.339,0.597,0.564,�k��,2.0,�L
2022/11/15,14:30,0.584,0.838,0.528,1.072,0.741,0.340,0.596,0.563,�k��,2.5,�L
2022/11/15,14:40,0.584,0.838,0.530,1.072,0.741,0.339,0.596,0.563,�k��,2.8,�L
2022/11/15,14:50,0.584,0.839,0.530,1.070,0.743,0.338,0.597,0.563,�k��,1.9,�L
2022/11/15,15:00,0.583,0.839,0.528,1.070,0.740,0.339,0.597,0.562,�k�k��,1.5,�L
2022/11/15,15:10,0.583,0.839,0.529,1.068,0.740,0.339,0.597,0.562,�k�k��,1.2,�L
2022/11/15,15:20,0.585,0.838,0.528,1.070,0.739,0.339,0.596,0.563,-,CALM,�L
2022/11/15,15:30,0.585,0.836,0.529,1.066,0.740,0.339,0.597,0.561,�쓌,1.2,�L
2022/11/15,15:40,0.585,0.837,0.525,1.069,0.738,0.339,0.597,0.563,���쓌,1.1,�L
2022/11/15,15:50,0.582,0.837,0.528,1.068,0.739,0.339,0.596,0.563,��쓌,0.9,�L
2022/11/15,16:00,0.581,0.838,0.527,1.068,0.740,0.339,0.596,0.563,��,0.9,�L
2022/11/15,16:10,0.579,0.839,0.528,1.068,0.739,0.337,0.596,0.562,��쐼,1.1,�L
2022/11/15,16:20,0.582,0.838,0.527,1.067,0.740,0.339,0.596,0.564,-,CALM,�L
2022/11/15,16:30,0.580,0.836,0.528,1.068,0.737,0.338,0.595,0.562,-,CALM,�L
2022/11/15,16:40,0.583,0.837,0.526,1.068,0.738,0.338,0.595,0.564,�쐼,0.6,�L
2022/11/15,16:50,0.581,0.839,0.527,1.067,0.739,0.338,0.596,0.560,��쐼,0.6,�L
2022/11/15,17:00,0.580,0.836,0.528,1.067,0.739,0.337,0.595,0.562,��,1.4,�L
2022/11/15,17:10,0.581,0.838,0.526,1.065,0.736,0.336,0.596,0.560,-,CALM,�L
2022/11/15,17:20,0.580,0.838,0.528,1.066,0.737,0.338,0.596,0.562,��쓌,0.6,��
2022/11/15,17:30,0.579,0.835,0.527,1.066,0.736,0.338,0.596,0.561,��,1.7,��
2022/11/15,17:40,0.579,0.836,0.527,1.066,0.738,0.336,0.595,0.561,��,1.7,��
2022/11/15,17:50,0.580,0.838,0.527,1.065,0.736,0.338,0.595,0.560,��쐼,1.7,��
2022/11/15,18:00,0.580,0.836,0.526,1.067,0.737,0.336,0.598,0.561,��,2.2,��
2022/11/15,18:10,0.579,0.836,0.526,1.064,0.737,0.337,0.595,0.562,��,2.6,��
2022/11/15,18:20,0.580,0.839,0.527,1.065,0.737,0.337,0.597,0.561,��,2.6,��
2022/11/15,18:30,0.580,0.838,0.528,1.066,0.739,0.337,0.595,0.561,��쐼,2.8,��
2022/11/15,18:40,0.578,0.836,0.526,1.067,0.738,0.338,0.596,0.561,��쐼,3.1,��
2022/11/15,18:50,0.580,0.836,0.528,1.068,0.737,0.337,0.597,0.560,��쐼,3.2,��
2022/11/15,19:00,0.579,0.834,0.526,1.065,0.738,0.338,0.597,0.559,��쐼,3.4,��
2022/11/15,19:10,0.579,0.836,0.526,1.067,0.737,0.338,0.595,0.560,��쐼,3.7,��
2022/11/15,19:20,0.581,0.836,0.527,1.067,0.737,0.337,0.594,0.560,��쐼,4.0,��
2022/11/15,19:30,0.579,0.837,0.528,1.067,0.737,0.337,0.596,0.560,��쐼,3.9,��
2022/11/15,19:40,0.580,0.836,0.524,1.067,0.737,0.337,0.595,0.561,�쐼,3.6,��
2022/11/15,19:50,0.580,0.835,0.526,1.066,0.735,0.336,0.595,0.561,�쐼,3.3,��
2022/11/15,20:00,0.578,0.836,0.526,1.066,0.736,0.337,0.596,0.559,��쐼,3.0,��
2022/11/15,20:10,0.578,0.835,0.524,1.068,0.736,0.338,0.594,0.559,�쐼,2.8,��
2022/11/15,20:20,0.578,0.835,0.526,1.066,0.738,0.336,0.594,0.561,�쐼,2.6,��
2022/11/15,20:30,0.580,0.835,0.525,1.065,0.737,0.337,0.594,0.561,�쐼,2.0,��
2022/11/15,20:40,0.579,0.837,0.526,1.066,0.739,0.337,0.594,0.561,��쐼,2.0,��
2022/11/15,20:50,0.578,0.835,0.525,1.064,0.735,0.337,0.594,0.562,��쐼,2.3,��
2022/11/15,21:00,0.578,0.835,0.526,1.065,0.737,0.338,0.595,0.561,�쐼,2.0,��
2022/11/15,21:10,0.579,0.835,0.524,1.066,0.736,0.337,0.595,0.561,�쐼,2.3,��
2022/11/15,21:20,0.578,0.834,0.527,1.067,0.738,0.337,0.596,0.560,��,1.2,��
2022/11/15,21:30,0.577,0.835,0.527,1.066,0.739,0.335,0.594,0.560,���k��,1.9,��
2022/11/15,21:40,0.577,0.835,0.526,1.066,0.736,0.337,0.595,0.560,���k��,2.8,��
2022/11/15,21:50,0.579,0.836,0.526,1.067,0.737,0.336,0.595,0.560,���쐼,2.2,��
2022/11/15,22:00,0.578,0.835,0.526,1.066,0.739,0.336,0.595,0.561,���쐼,1.2,��
2022/11/15,22:10,0.578,0.836,0.524,1.065,0.739,0.338,0.595,0.560,��,2.8,��
2022/11/15,22:20,0.580,0.835,0.526,1.067,0.737,0.337,0.595,0.561,��,3.1,��
2022/11/15,22:30,0.579,0.835,0.526,1.069,0.737,0.337,0.595,0.562,��,4.6,��
2022/11/15,22:40,0.578,0.834,0.526,1.067,0.736,0.336,0.595,0.560,��,6.8,��
2022/11/15,22:50,0.578,0.837,0.526,1.065,0.736,0.337,0.593,0.560,��,6.4,��
2022/11/15,23:00,0.578,0.835,0.527,1.067,0.736,0.337,0.595,0.560,���k��,5.1,��
2022/11/15,23:10,0.577,0.834,0.525,1.066,0.736,0.338,0.593,0.560,���k��,5.8,��
2022/11/15,23:20,0.578,0.834,0.527,1.066,0.737,0.337,0.594,0.561,���k��,6.3,��
2022/11/15,23:30,0.579,0.837,0.526,1.067,0.737,0.336,0.594,0.561,���k��,6.2,��
2022/11/15,23:40,0.579,0.835,0.526,1.066,0.738,0.338,0.595,0.562,���k��,6.4,��
2022/11/15,23:50,0.579,0.835,0.527,1.067,0.737,0.338,0.594,0.562,���k��,6.7,��
